When you browse on this site, cookies collect data to enhance your experience and personalize the content and advertising you see.
Visit our Privacy Policy to learn more. By continuing to use the site, you agree to this use of cookies and data.
  • Em Portugal
  • Lista de países
  • Para 7 dias
  • Temperatura da água
  • Mapa do tempo
  • Widgets de tempo
  • user-avatar
    Iniciar Sessão

    Previsão horária em Koryzhi

    Hoje, 14 Novembro, Quinta-feira

    Tempo Temperatura Precipitação Vento Pressão Humidade
    00:00 +9°C° 0 mm 5 m/s 752 mmHg 82%
    01:00 +8°C° 0 mm 5 m/s 752 mmHg 84%
    02:00 +8°C° 0 mm 5 m/s 752 mmHg 86%
    03:00 +8°C° 0 mm 5 m/s 752 mmHg 84%
    04:00 +8°C° 0 mm 5 m/s 752 mmHg 83%
    05:00 +8°C° 0 mm 5 m/s 751 mmHg 81%
    06:00 +8°C° 0 mm 5 m/s 752 mmHg 80%
    07:00 +8°C° 0 mm 5 m/s 752 mmHg 79%
    08:00 +7°C° 0 mm 5 m/s 752 mmHg 78%
    09:00 +8°C° 0 mm 5 m/s 752 mmHg 77%
    10:00 +8°C° 0 mm 5 m/s 752 mmHg 76%
    11:00 +8°C° 0 mm 5 m/s 753 mmHg 75%
    12:00 +8°C° 0 mm 5 m/s 753 mmHg 75%
    13:00 +9°C° 0 mm 5 m/s 753 mmHg 74%
    14:00 +9°C° 0 mm 5 m/s 754 mmHg 74%
    15:00 +9°C° 0 mm 5 m/s 754 mmHg 76%
    16:00 +8°C° 0 mm 5 m/s 754 mmHg 77%
    17:00 +8°C° 0 mm 4 m/s 754 mmHg 79%
    18:00 +8°C° 0.1 mm 4 m/s 755 mmHg 80%
    19:00 +8°C° 0.1 mm 4 m/s 755 mmHg 81%
    20:00 +8°C° 0.1 mm 4 m/s 755 mmHg 83%
    21:00 +8°C° 0.4 mm 4 m/s 756 mmHg 84%
    22:00 +8°C° 0.4 mm 4 m/s 756 mmHg 86%
    23:00 +9°C° 0.4 mm 3 m/s 756 mmHg 88%

    Amanhã, 15 Novembro, Sexta-feira

    Tempo Temperatura Precipitação Vento Pressão Humidade
    00:00 +8°C° 0.3 mm 3 m/s 757 mmHg 88%
    01:00 +8°C° 0.3 mm 3 m/s 757 mmHg 89%
    02:00 +8°C° 0.3 mm 2 m/s 758 mmHg 89%
    03:00 +8°C° 0.1 mm 2 m/s 758 mmHg 90%
    04:00 +8°C° 0.1 mm 2 m/s 758 mmHg 90%
    05:00 +8°C° 0.1 mm 1 m/s 758 mmHg 91%
    06:00 +8°C° 0.1 mm 1 m/s 758 mmHg 91%
    07:00 +8°C° 0.1 mm 1 m/s 759 mmHg 92%
    08:00 +8°C° 0.1 mm 1 m/s 759 mmHg 92%
    09:00 +8°C° 0.1 mm 1 m/s 760 mmHg 92%
    10:00 +8°C° 0.1 mm 1 m/s 760 mmHg 92%
    11:00 +8°C° 0.1 mm 1 m/s 760 mmHg 91%
    12:00 +7°C° 0 mm 1 m/s 760 mmHg 91%
    13:00 +7°C° 0 mm 1 m/s 760 mmHg 91%
    14:00 +7°C° 0 mm 1 m/s 761 mmHg 90%
    15:00 +7°C° 0 mm 1 m/s 761 mmHg 90%
    16:00 +7°C° 0 mm 1 m/s 761 mmHg 90%
    17:00 +7°C° 0 mm 1 m/s 761 mmHg 90%
    18:00 +6°C° 0 mm 1 m/s 761 mmHg 90%
    19:00 +6°C° 0 mm 1 m/s 761 mmHg 89%
    20:00 +6°C° 0 mm 1 m/s 761 mmHg 89%
    21:00 +5°C° 0 mm 2 m/s 761 mmHg 88%
    22:00 +5°C° 0 mm 2 m/s 761 mmHg 88%
    23:00 +5°C° 0 mm 2 m/s 761 mmHg 87%

    Depois de amanhã, 16 Novembro, Sábado

    Tempo Temperatura Precipitação Vento Pressão Humidade
    00:00 +4°C° 0 mm 2 m/s 761 mmHg 87%
    01:00 +4°C° 0 mm 2 m/s 760 mmHg 87%
    02:00 +4°C° 0 mm 2 m/s 760 mmHg 87%
    03:00 +4°C° 0 mm 2 m/s 760 mmHg 87%
    04:00 +4°C° 0 mm 2 m/s 759 mmHg 87%
    05:00 +3°C° 0 mm 2 m/s 759 mmHg 88%
    06:00 +3°C° 0 mm 2 m/s 759 mmHg 88%
    07:00 +3°C° 0 mm 2 m/s 758 mmHg 87%
    08:00 +3°C° 0 mm 2 m/s 758 mmHg 87%
    09:00 +4°C° 0 mm 2 m/s 758 mmHg 86%
    10:00 +4°C° 0 mm 2 m/s 758 mmHg 85%
    11:00 +3°C° 0 mm 3 m/s 758 mmHg 83%
    12:00 +3°C° 0 mm 3 m/s 758 mmHg 83%
    13:00 +4°C° 0 mm 3 m/s 757 mmHg 83%
    14:00 +5°C° 0 mm 2 m/s 757 mmHg 83%
    15:00 +4°C° 0 mm 2 m/s 757 mmHg 86%
    16:00 +4°C° 0 mm 2 m/s 757 mmHg 89%
    17:00 +3°C° 0 mm 2 m/s 757 mmHg 92%
    18:00 +3°C° 0 mm 2 m/s 757 mmHg 92%
    19:00 +3°C° 0 mm 2 m/s 757 mmHg 92%
    20:00 +2°C° 0 mm 3 m/s 757 mmHg 92%
    21:00 +3°C° 0 mm 3 m/s 757 mmHg 93%
    22:00 +3°C° 0 mm 3 m/s 757 mmHg 93%
    23:00 +3°C° 0 mm 4 m/s 757 mmHg 94%

    17 Novembro, Domingo

    Tempo Temperatura Precipitação Vento Pressão Humidade
    00:00 +4°C° 0 mm 4 m/s 756 mmHg 94%
    01:00 +4°C° 0 mm 4 m/s 756 mmHg 94%
    02:00 +4°C° 0 mm 4 m/s 756 mmHg 94%
    03:00 +5°C° 0 mm 4 m/s 756 mmHg 94%
    04:00 +5°C° 0 mm 4 m/s 756 mmHg 94%
    05:00 +6°C° 0 mm 4 m/s 756 mmHg 94%
    06:00 +6°C° 0 mm 4 m/s 757 mmHg 94%
    07:00 +6°C° 0 mm 4 m/s 757 mmHg 94%
    08:00 +6°C° 0 mm 4 m/s 757 mmHg 94%
    09:00 +7°C° 0 mm 4 m/s 757 mmHg 94%
    10:00 +7°C° 0 mm 4 m/s 757 mmHg 93%
    11:00 +8°C° 0 mm 3 m/s 758 mmHg 92%
    12:00 +9°C° 0 mm 3 m/s 758 mmHg 92%
    13:00 +9°C° 0 mm 3 m/s 758 mmHg 92%
    14:00 +9°C° 0 mm 3 m/s 758 mmHg 92%
    15:00 +8°C° 0 mm 3 m/s 758 mmHg 93%
    16:00 +8°C° 0 mm 2 m/s 758 mmHg 94%
    17:00 +8°C° 0 mm 2 m/s 758 mmHg 95%
    18:00 +7°C° 0 mm 2 m/s 758 mmHg 95%
    19:00 +7°C° 0 mm 2 m/s 759 mmHg 96%
    20:00 +7°C° 0 mm 2 m/s 759 mmHg 96%
    21:00 +6°C° 0 mm 2 m/s 759 mmHg 96%
    22:00 +6°C° 0 mm 2 m/s 759 mmHg 97%
    23:00 +7°C° 0 mm 1 m/s 760 mmHg 97%

    18 Novembro, Segunda-feira

    Tempo Temperatura Precipitação Vento Pressão Humidade
    00:00 +7°C° 0 mm 1 m/s 760 mmHg 97%
    01:00 +6°C° 0 mm 1 m/s 760 mmHg 97%
    02:00 +5°C° 0 mm 0 m/s 760 mmHg 97%
    03:00 +5°C° 0 mm 0 m/s 760 mmHg 96%
    04:00 +5°C° 0 mm 0 m/s 760 mmHg 96%
    05:00 +5°C° 0 mm 0 m/s 760 mmHg 96%
    06:00 +6°C° 0 mm 1 m/s 760 mmHg 96%
    07:00 +6°C° 0 mm 1 m/s 760 mmHg 97%
    08:00 +7°C° 0 mm 1 m/s 760 mmHg 97%
    09:00 +7°C° 0 mm 1 m/s 761 mmHg 96%
    10:00 +8°C° 0 mm 1 m/s 761 mmHg 95%
    11:00 +9°C° 0 mm 1 m/s 761 mmHg 94%
    12:00 +8°C° 0 mm 2 m/s 760 mmHg 92%
    13:00 +8°C° 0 mm 2 m/s 760 mmHg 91%
    14:00 +8°C° 0 mm 2 m/s 760 mmHg 90%
    15:00 +8°C° 0 mm 2 m/s 760 mmHg 91%
    16:00 +7°C° 0 mm 2 m/s 760 mmHg 92%
    17:00 +7°C° 0 mm 2 m/s 759 mmHg 93%
    18:00 +7°C° 0 mm 2 m/s 759 mmHg 94%
    19:00 +6°C° 0 mm 2 m/s 759 mmHg 94%
    20:00 +5°C° 0 mm 3 m/s 759 mmHg 94%
    21:00 +5°C° 0 mm 3 m/s 759 mmHg 93%
    22:00 +5°C° 0 mm 3 m/s 758 mmHg 92%
    23:00 +4°C° 0 mm 3 m/s 758 mmHg 91%

    19 Novembro, Terça-feira

    Tempo Temperatura Precipitação Vento Pressão Humidade
    00:00 +4°C° 0 mm 3 m/s 758 mmHg 90%
    01:00 +4°C° 0 mm 3 m/s 758 mmHg 90%
    02:00 +3°C° 0 mm 3 m/s 758 mmHg 89%
    03:00 +3°C° 0 mm 3 m/s 757 mmHg 90%
    04:00 +2°C° 0 mm 3 m/s 757 mmHg 90%
    05:00 +2°C° 0 mm 3 m/s 757 mmHg 91%
    06:00 +2°C° 0 mm 3 m/s 757 mmHg 92%
    07:00 +2°C° 0 mm 3 m/s 757 mmHg 92%
    08:00 +1°C° 0 mm 3 m/s 756 mmHg 93%
    09:00 +2°C° 0 mm 3 m/s 757 mmHg 91%
    10:00 +2°C° 0 mm 3 m/s 757 mmHg 90%
    11:00 +3°C° 0 mm 4 m/s 757 mmHg 88%
    12:00 +3°C° 0 mm 3 m/s 757 mmHg 89%
    13:00 +3°C° 0 mm 3 m/s 757 mmHg 89%
    14:00 +3°C° 0 mm 3 m/s 757 mmHg 90%
    15:00 +4°C° 0 mm 3 m/s 757 mmHg 91%
    16:00 +4°C° 0 mm 3 m/s 757 mmHg 92%
    17:00 +5°C° 0 mm 2 m/s 757 mmHg 93%
    18:00 +5°C° 0 mm 2 m/s 757 mmHg 94%
    19:00 +5°C° 0 mm 2 m/s 758 mmHg 94%
    20:00 +5°C° 0 mm 2 m/s 758 mmHg 95%
    21:00 +5°C° 0 mm 2 m/s 758 mmHg 95%
    22:00 +4°C° 0 mm 2 m/s 758 mmHg 96%
    23:00 +4°C° 0 mm 2 m/s 759 mmHg 96%
    Mostrar mais